Tiempo cada hora Allassac

Hoy, 28 Julio, Miércoles

Tiempo Temperatura Precipitaciones Viento Presión Humedad
00:00 +14°C° 0 mm 0 mps 736 mmHg 93%
01:00 +14°C° 0 mm 0 mps 736 mmHg 93%
02:00 +14°C° 0 mm 0 mps 736 mmHg 93%
03:00 +14°C° 0 mm 0 mps 736 mmHg 93%
04:00 +15°C° 0 mm 0 mps 736 mmHg 94%
05:00 +15°C° 0 mm 0 mps 736 mmHg 94%
06:00 +15°C° 0 mm 0 mps 737 mmHg 94%
07:00 +18°C° 0.1 mm 1 mps 737 mmHg 90%
08:00 +18°C° 0.1 mm 1 mps 737 mmHg 87%
09:00 +19°C° 0.1 mm 1 mps 737 mmHg 84%
10:00 +20°C° 0 mm 1 mps 737 mmHg 75%
11:00 +22°C° 0 mm 1 mps 737 mmHg 66%
12:00 +23°C° 0 mm 1 mps 737 mmHg 57%
13:00 +24°C° 0 mm 2 mps 737 mmHg 53%
14:00 +25°C° 0 mm 2 mps 737 mmHg 49%
15:00 +26°C° 0 mm 2 mps 737 mmHg 45%
16:00 +25°C° 0 mm 1 mps 737 mmHg 50%
17:00 +24°C° 0 mm 1 mps 737 mmHg 56%
18:00 +24°C° 0 mm 1 mps 737 mmHg 61%
19:00 +21°C° 0 mm 1 mps 737 mmHg 69%
20:00 +19°C° 0 mm 1 mps 737 mmHg 77%
21:00 +16°C° 0 mm 1 mps 737 mmHg 85%
22:00 +15°C° 0 mm 1 mps 737 mmHg 87%
23:00 +15°C° 0 mm 1 mps 737 mmHg 89%

Mañana, 29 Julio, Jueves

Tiempo Temperatura Precipitaciones Viento Presión Humedad
00:00 +14°C° 0 mm 1 mps 737 mmHg 92%
01:00 +14°C° 0 mm 1 mps 737 mmHg 93%
02:00 +13°C° 0 mm 1 mps 737 mmHg 94%
03:00 +13°C° 0 mm 1 mps 737 mmHg 96%
04:00 +14°C° 0 mm 1 mps 737 mmHg 92%
05:00 +13°C° 0 mm 0 mps 737 mmHg 89%
06:00 +14°C° 0 mm 0 mps 736 mmHg 86%
07:00 +17°C° 0.1 mm 0 mps 736 mmHg 77%
08:00 +19°C° 0.1 mm 0 mps 737 mmHg 67%
09:00 +22°C° 0.1 mm 0 mps 737 mmHg 58%
10:00 +25°C° 0.2 mm 1 mps 736 mmHg 56%
11:00 +26°C° 0.2 mm 1 mps 736 mmHg 54%
12:00 +27°C° 0.2 mm 1 mps 736 mmHg 52%
13:00 +27°C° 0.2 mm 1 mps 736 mmHg 52%
14:00 +27°C° 0.2 mm 1 mps 735 mmHg 52%
15:00 +27°C° 0.2 mm 1 mps 735 mmHg 52%
16:00 +26°C° 0.1 mm 1 mps 735 mmHg 58%
17:00 +26°C° 0.1 mm 1 mps 735 mmHg 63%
18:00 +25°C° 0.1 mm 1 mps 734 mmHg 69%
19:00 +23°C° 0 mm 1 mps 734 mmHg 74%
20:00 +21°C° 0 mm 1 mps 734 mmHg 79%
21:00 +19°C° 0 mm 1 mps 734 mmHg 83%
22:00 +18°C° 0 mm 1 mps 734 mmHg 85%
23:00 +18°C° 0 mm 1 mps 734 mmHg 86%

Pasado mañana, 30 Julio, Viernes

Tiempo Temperatura Precipitaciones Viento Presión Humedad
00:00 +16°C° 0 mm 1 mps 734 mmHg 87%
01:00 +15°C° 0 mm 0 mps 734 mmHg 88%
02:00 +14°C° 0 mm 0 mps 734 mmHg 88%
03:00 +14°C° 0 mm 0 mps 734 mmHg 89%
04:00 +14°C° 0 mm 0 mps 734 mmHg 87%
05:00 +15°C° 0 mm 0 mps 734 mmHg 84%
06:00 +15°C° 0 mm 0 mps 735 mmHg 82%
07:00 +16°C° 0 mm 0 mps 735 mmHg 76%
08:00 +19°C° 0 mm 1 mps 735 mmHg 70%
09:00 +20°C° 0 mm 1 mps 736 mmHg 65%
10:00 +22°C° 0 mm 1 mps 736 mmHg 58%
11:00 +23°C° 0 mm 2 mps 736 mmHg 52%
12:00 +25°C° 0 mm 2 mps 736 mmHg 45%
13:00 +26°C° 0 mm 2 mps 735 mmHg 45%
14:00 +26°C° 0 mm 2 mps 735 mmHg 45%
15:00 +27°C° 0 mm 3 mps 735 mmHg 45%
16:00 +26°C° 0 mm 3 mps 735 mmHg 53%
17:00 +24°C° 0 mm 3 mps 735 mmHg 61%
18:00 +22°C° 0 mm 3 mps 735 mmHg 68%
19:00 +20°C° 0 mm 2 mps 736 mmHg 75%
20:00 +18°C° 0 mm 2 mps 736 mmHg 82%
21:00 +16°C° 0 mm 1 mps 736 mmHg 88%
22:00 +15°C° 0 mm 1 mps 736 mmHg 90%
23:00 +14°C° 0 mm 1 mps 736 mmHg 92%

31 Julio, Sábado

Tiempo Temperatura Precipitaciones Viento Presión Humedad
00:00 +13°C° 0 mm 1 mps 736 mmHg 94%
01:00 +12°C° 0 mm 1 mps 736 mmHg 94%
02:00 +12°C° 0 mm 1 mps 736 mmHg 95%
03:00 +10°C° 0 mm 0 mps 736 mmHg 96%
04:00 +11°C° 0 mm 0 mps 736 mmHg 93%
05:00 +11°C° 0 mm 0 mps 736 mmHg 91%
06:00 +12°C° 0 mm 0 mps 736 mmHg 88%
07:00 +15°C° 0 mm 1 mps 736 mmHg 76%
08:00 +19°C° 0 mm 1 mps 736 mmHg 65%
09:00 +21°C° 0 mm 1 mps 736 mmHg 53%
10:00 +23°C° 0 mm 1 mps 735 mmHg 49%
11:00 +24°C° 0 mm 1 mps 735 mmHg 44%
12:00 +25°C° 0 mm 2 mps 735 mmHg 40%
13:00 +25°C° 0 mm 2 mps 735 mmHg 39%
14:00 +25°C° 0 mm 2 mps 734 mmHg 39%
15:00 +26°C° 0 mm 2 mps 734 mmHg 39%
16:00 +24°C° 0 mm 2 mps 734 mmHg 45%
17:00 +23°C° 0 mm 2 mps 734 mmHg 52%
18:00 +21°C° 0 mm 2 mps 734 mmHg 58%
19:00 +19°C° 0 mm 2 mps 734 mmHg 65%
20:00 +19°C° 0 mm 1 mps 735 mmHg 72%
21:00 +16°C° 0 mm 1 mps 735 mmHg 79%
22:00 +16°C° 0 mm 1 mps 735 mmHg 82%
23:00 +15°C° 0 mm 1 mps 735 mmHg 84%

1 Agosto, Domingo

Tiempo Temperatura Precipitaciones Viento Presión Humedad
00:00 +14°C° 0 mm 1 mps 735 mmHg 87%
01:00 +14°C° 0 mm 1 mps 735 mmHg 89%
02:00 +13°C° 0 mm 1 mps 735 mmHg 91%
03:00 +13°C° 0 mm 1 mps 735 mmHg 93%
04:00 +13°C° 0 mm 1 mps 735 mmHg 92%
05:00 +12°C° 0 mm 0 mps 735 mmHg 91%
06:00 +12°C° 0 mm 0 mps 735 mmHg 89%
07:00 +16°C° 0 mm 1 mps 735 mmHg 79%
08:00 +19°C° 0 mm 1 mps 735 mmHg 69%
09:00 +20°C° 0 mm 2 mps 735 mmHg 59%
10:00 +20°C° 0 mm 2 mps 735 mmHg 54%
11:00 +21°C° 0 mm 2 mps 735 mmHg 49%
12:00 +23°C° 0 mm 2 mps 735 mmHg 44%
13:00 +23°C° 0 mm 2 mps 735 mmHg 44%
14:00 +24°C° 0 mm 2 mps 735 mmHg 43%
15:00 +24°C° 0 mm 2 mps 735 mmHg 43%
16:00 +23°C° 0 mm 2 mps 735 mmHg 49%
17:00 +22°C° 0 mm 1 mps 735 mmHg 55%
18:00 +21°C° 0 mm 1 mps 735 mmHg 62%
19:00 +19°C° 0 mm 1 mps 735 mmHg 70%
20:00 +16°C° 0 mm 1 mps 735 mmHg 78%
21:00 +15°C° 0 mm 1 mps 735 mmHg 86%
22:00 +13°C° 0 mm 0 mps 735 mmHg 89%
23:00 +13°C° 0 mm 0 mps 735 mmHg 92%

2 Agosto, Lunes

Tiempo Temperatura Precipitaciones Viento Presión Humedad
00:00 +12°C° 0 mm 0 mps 735 mmHg 95%
01:00 +12°C° 0 mm 0 mps 735 mmHg 96%
02:00 +12°C° 0 mm 0 mps 735 mmHg 97%
03:00 +12°C° 0 mm 0 mps 735 mmHg 97%
04:00 +12°C° 0 mm 0 mps 735 mmHg 96%
05:00 +13°C° 0 mm 0 mps 735 mmHg 94%
06:00 +13°C° 0 mm 0 mps 735 mmHg 92%
07:00 +15°C° 0 mm 0 mps 735 mmHg 84%
08:00 +18°C° 0 mm 1 mps 735 mmHg 75%
09:00 +20°C° 0 mm 1 mps 735 mmHg 67%
10:00 +22°C° 0 mm 1 mps 735 mmHg 60%
11:00 +23°C° 0 mm 1 mps 735 mmHg 54%
12:00 +24°C° 0 mm 1 mps 735 mmHg 47%
13:00 +25°C° 0 mm 1 mps 734 mmHg 45%
14:00 +26°C° 0 mm 1 mps 734 mmHg 42%
15:00 +26°C° 0 mm 2 mps 734 mmHg 40%
16:00 +25°C° 0 mm 1 mps 734 mmHg 47%
17:00 +24°C° 0 mm 1 mps 734 mmHg 53%
18:00 +23°C° 0 mm 1 mps 733 mmHg 60%
19:00 +21°C° 0.2 mm 1 mps 734 mmHg 69%
20:00 +19°C° 0.2 mm 1 mps 734 mmHg 78%
21:00 +16°C° 0.2 mm 1 mps 734 mmHg 87%
22:00 +16°C° 1 mm 1 mps 734 mmHg 91%
23:00 +15°C° 1 mm 1 mps 734 mmHg 95%
Mostrar más

Necesitamos Su Consentimiento

Meteoprog y nuestros Proveedores de Servicios pueden almacenar y acceder a sus datos personales como cookies, identificadores de dispositivo u otras tecnologías similares de su dispositivo y procesar dichos datos para personalizar contenido y anuncios, además de ofrecer funciones de redes sociales y analizar el tráfico.

  • Almacenar y/o acceder a información en su dispositivo

    Se puede almacenar o acceder a cookies, identificadores de dispositivo u otra información de su dispositivo para los fines anteriormente indicados.

  • Anuncios y contenido personalizados, medición de anuncios y contenido, percepciones del público, y desarrollo de productos

    Los anuncios y el contenido pueden personalizarse en base a su perfil. Se pueden añadir más datos para personalizar mejor los anuncios y contenidos. Se puede medir el rendimiento de los anuncios y contenidos. Se puede obtener la percepción sobre el público que ha visto los anuncios y contenidos. Dichos datos pueden usarse para desarrollar o mejorar la experiencia del usuario, sistemas y software.

Al hacer clic en ‘Estoy De Acuerdo’ usted permitirá el uso de las cookies, identificadores de dispositivo, balizas web u otras tecnologías similares indicadas. Su configuración puede cambiarse desde el navegador de su dispositivo.

Para ciertos fines, los intereses legítimos pueden ser considerados por encima del consentimiento. Puede leer más sobre ello en nuestra Política de Privacidad y Cookies.